Hourly Data Report for October 18, 2015

All times are specified in Local Standard Time (LST). Add 1 hour to adjust for Daylight Saving Time where and when it is observed.

PANGNIRTUNG
NUNAVUT

66°08'36.300" N
65°42'40.500" W
22.60 m
2403049
71826
WXP

Download Data

Hourly Data (October 2015)
Hourly Data Report for October 18, 2015
Temp Definition
°C
Dew Point Temp Definition
°C
Rel Hum Definition
%
Wind Dir Definition
10's deg

Wind Spd Definition
km/h
Visibility Definition
km
Stn Press Definition
kPa
Hmdx Definition


Wind Chill Definition


Weather Definition


TIME
00:00 -8.7 -13.3 69 0 1   100.41   -9 LegendNANA
01:00 -9.1 -14.2 66 14 5   100.41   -12 LegendNANA
02:00 -8.4 -13.0 69 12 7   100.43   -12 LegendNANA
03:00 -9.1 -13.7 69 14 7   100.44   -13 LegendNANA
04:00 -9.5 -13.6 72 11 3   100.46   -11 LegendNANA
05:00 -9.9 -14.4 70 13 4   100.47   -12 LegendNANA
06:00 -10.1 -14.6 69 13 3   100.49   -12 LegendNANA
07:00 -9.9 -14.5 69 13 1   100.52   -10 LegendNANA
08:00 -10.4 -14.8 71 15 2   100.52   -12 LegendNANA
09:00 -10.1 -15.1 67 14 6   100.52   -14 LegendNANA
10:00 -10.4 -15.4 67 13 1   100.50   -11 LegendNANA
11:00 -10.5 -15.5 66 12 7   100.52   -15 LegendNANA
12:00 -10.1 -15.4 66 12 5   100.51   -13 LegendNANA
13:00 -10.5 -15.8 65 11 1   100.55   -11 LegendNANA
14:00 -10.2 -15.6 65 10 4   100.55   -13 LegendNANA
15:00 -9.6 -14.7 67 10 5   100.54   -12 LegendNANA
16:00 -10.5 -15.0 70 11 2   100.54   -12 LegendNANA
17:00 -9.4 -13.8 71 10 13   100.53   -15 LegendNANA
18:00 -9.3 -14.2 68 11 7   100.53   -13 LegendNANA
19:00 -9.7 -14.1 70 10 9   100.53   -15 LegendNANA
20:00 -9.2 -13.8 69 11 7   100.55   -13 LegendNANA
21:00 -9.4 -13.7 71 10 8   100.53   -14 LegendNANA
22:00 -9.1 -13.7 69 9 9   100.50   -14 LegendNANA
23:00 -9.4 -13.6 72 10 6   100.50   -13 LegendNANA

Notes on Data Quality.

Legend

  • E = Estimated
  • M = Missing
  • NA = Not Available
  • ‡ = Partner data that is not subject to review by the National Climate Archives
Date modified: